Home > Weather > Traralgon > Past weeks

Flag for Australia Past Weather in Traralgon, Victoria, Australia — Yesterday and Last 2 Weeks

Now
53 °F

Overcast.


Feels Like: 48 °F
Forecast: 47 / 57 °F
Wind: 18 mph from West

Location: Latrobe Valley Airport

Current Time: Jul 27, 2016 at 1:51:20 PM

Latest Report: Jul 27, 2016 at 12:00 PM


Visibility: N/A

Pressure: 29.92 "Hg

Humidity: 63%

Dew Point: 41 °F

Location of TraralgonLocation

Past Weather in Traralgon — Graph

°F

Traralgon Temperature Yesterday

Maximum temperature yesterday: 52 °F (at 2:00 PM)
Minimum temperature yesterday: 40 °F (at 9:00 PM)
Average temperature yesterday: 47 °F

High & Low Weather Summary for the Past Weeks

 TemperatureHumidityPressure
High65 °F (Jul 18, 11:00 AM)98% (Jul 17, 11:00 AM)30.51 "Hg (Jul 17, 11:00 AM)
Low31 °F (Jul 17, 8:00 AM)50% (Jul 26, 3:00 PM)29.26 "Hg (Jul 23, 2:00 AM)
Average48 °F79%29.96 "Hg
* Reported Jul 12 12:00 PM — Jul 27 12:00 PM, Traralgon, Weather by CustomWeather, © 2016

Note: Actual official high and low records may vary slightly from our data, if they occured in-between our weather recording intervals... More about our weather records

Advertising

Traralgon Weather History for the Previous 24 Hours

Scroll right to see more
 ConditionsComfort  
Time TempWeatherWind HumidityBarometerVisibility
12:00 PM
Wed, Jul 27
53 °FOvercast.18 mph63%29.92 "HgN/A
11:00 AM51 °FCool.20 mph71%29.91 "HgN/A
9:00 AM48 °FOvercast.13 mph91%29.83 "HgN/A
8:00 AM48 °FCool.15 mph85%29.78 "HgN/A
6:00 AM49 °FOvercast.12 mph69%29.72 "HgN/A
5:00 AM49 °FCool.16 mph70%29.69 "HgN/A
3:00 AM46 °FPassing clouds.13 mph72%29.66 "HgN/A
2:00 AM44 °FQuite cool.9 mph76%29.67 "HgN/A
12:00 AM47 °FPassing clouds.8 mph62%29.69 "HgN/A
11:00 PM
Tue, Jul 26
46 °FCool.8 mph68%29.71 "HgN/A
9:00 PM40 °FOvercast.9 mph80%29.73 "HgN/A
8:00 PM45 °FCool.7 mph68%29.74 "HgN/A
6:00 PM45 °FCool.12 mph68%29.76 "HgN/A
5:00 PM48 °FCool.13 mph61%29.77 "HgN/A
3:00 PM51 °FPassing clouds.17 mph50%29.80 "HgN/A
2:00 PM52 °FCool.17 mph57%29.82 "HgN/A
Weather by CustomWeather, © 2016

See weather overviewHow to use our weather pages